Time,TemperatureF,DewpointF,PressureIn,WindDirection,WindDirectionDegrees,WindSpeedMPH,WindSpeedGustMPH,Humidity,HourlyPrecipIn,Conditions,Clouds,dailyrainin,SoftwareType,DateUTC
2013-06-17 00:02:00,71.0,66.0,29.94,East,90,0.0,0.0,83,0.00,,,0.00,,2013-06-17 05:02:00,
2013-06-17 00:10:00,70.0,65.0,29.94,East,90,0.0,0.0,83,0.00,,,0.00,,2013-06-17 05:10:00,
2013-06-17 00:12:00,71.0,66.0,29.94,East,90,0.0,0.0,83,0.00,,,0.00,,2013-06-17 05:12:00,
2013-06-17 00:22:00,70.0,65.0,29.94,East,90,0.0,0.0,83,0.00,,,0.00,,2013-06-17 05:22:00,
2013-06-17 00:33:00,70.0,65.0,29.94,East,90,0.0,0.0,83,0.00,,,0.00,,2013-06-17 05:33:00,
2013-06-17 00:44:00,70.0,65.0,29.94,East,90,0.0,0.0,83,0.00,,,0.00,,2013-06-17 05:44:00,
2013-06-17 00:53:00,70.0,65.0,29.94,East,90,0.0,0.0,83,0.00,,,0.00,,2013-06-17 05:53:00,
2013-06-17 01:02:00,70.0,65.0,29.94,East,90,0.0,0.0,83,0.00,,,0.00,,2013-06-17 06:02:00,
2013-06-17 01:53:00,68.0,64.0,29.92,SW,225,0.0,0.0,86,0.00,,,0.00,,2013-06-17 06:53:00,
2013-06-17 02:02:00,68.0,64.0,29.92,SW,225,0.0,0.0,86,0.00,,,0.00,,2013-06-17 07:02:00,
2013-06-17 02:12:00,68.0,64.0,29.92,SW,225,0.0,0.0,86,0.00,,,0.00,,2013-06-17 07:12:00,
2013-06-17 02:22:00,68.0,64.0,29.91,WSW,248,0.0,0.0,87,0.00,,,0.00,,2013-06-17 07:22:00,
2013-06-17 02:33:00,68.0,64.0,29.91,WSW,248,0.0,0.0,87,0.00,,,0.00,,2013-06-17 07:33:00,
2013-06-17 02:40:00,68.0,64.0,29.89,SW,225,1.0,1.0,86,0.00,,,0.00,,2013-06-17 07:40:00,
2013-06-17 02:43:00,68.0,64.0,29.91,WSW,248,0.0,0.0,87,0.00,,,0.00,,2013-06-17 07:43:00,
2013-06-17 02:53:00,68.0,64.0,29.89,SW,225,1.0,1.0,86,0.00,,,0.00,,2013-06-17 07:53:00,
2013-06-17 03:02:00,68.0,64.0,29.89,SW,225,1.0,1.0,86,0.00,,,0.00,,2013-06-17 08:02:00,
2013-06-17 03:11:00,68.0,64.0,29.89,SW,225,1.0,1.0,86,0.00,,,0.00,,2013-06-17 08:11:00,
2013-06-17 03:22:00,68.0,64.0,29.89,SW,225,1.0,1.0,86,0.00,,,0.00,,2013-06-17 08:22:00,
2013-06-17 03:34:00,68.0,64.0,29.89,SW,225,1.0,1.0,86,0.00,,,0.00,,2013-06-17 08:34:00,
2013-06-17 03:40:00,68.0,64.0,29.89,ESE,113,0.0,0.0,88,0.00,,,0.00,,2013-06-17 08:40:00,
2013-06-17 03:53:00,68.0,64.0,29.89,ESE,113,0.0,0.0,88,0.00,,,0.00,,2013-06-17 08:53:00,
2013-06-17 04:02:00,68.0,64.0,29.89,ESE,113,0.0,0.0,88,0.00,,,0.00,,2013-06-17 09:02:00,
2013-06-17 04:12:00,68.0,64.0,29.89,ESE,113,0.0,0.0,88,0.00,,,0.00,,2013-06-17 09:12:00,
2013-06-17 04:22:00,68.0,64.0,29.89,ESE,113,0.0,0.0,88,0.00,,,0.00,,2013-06-17 09:22:00,
2013-06-17 04:34:00,68.0,64.0,29.89,ESE,113,0.0,0.0,88,0.00,,,0.00,,2013-06-17 09:34:00,
2013-06-17 06:53:00,69.0,64.0,29.89,NW,315,0.0,0.0,85,0.00,,,0.00,,2013-06-17 11:53:00,
2013-06-17 07:02:00,69.0,64.0,29.89,NW,315,0.0,0.0,85,0.00,,,0.00,,2013-06-17 12:02:00,
2013-06-17 07:12:00,69.0,64.0,29.89,NW,315,0.0,0.0,85,0.00,,,0.00,,2013-06-17 12:12:00,
2013-06-17 07:23:00,68.0,63.0,29.91,West,270,0.0,0.0,85,0.00,,,0.00,,2013-06-17 12:23:00,
2013-06-17 07:33:00,68.0,63.0,29.91,West,270,0.0,0.0,85,0.00,,,0.00,,2013-06-17 12:33:00,
2013-06-17 07:40:00,68.0,64.0,29.91,WNW,293,3.0,3.0,86,0.00,,,0.00,,2013-06-17 12:40:00,
2013-06-17 07:43:00,68.0,63.0,29.91,West,270,0.0,0.0,85,0.00,,,0.00,,2013-06-17 12:43:00,
2013-06-17 07:53:00,68.0,64.0,29.91,WNW,293,3.0,3.0,86,0.00,,,0.00,,2013-06-17 12:53:00,
2013-06-17 08:01:00,68.0,64.0,29.91,WNW,293,3.0,3.0,86,0.00,,,0.00,,2013-06-17 13:01:00,
2013-06-17 08:12:00,68.0,64.0,29.91,WNW,293,3.0,3.0,86,0.00,,,0.00,,2013-06-17 13:12:00,
2013-06-17 08:22:00,68.0,64.0,29.91,WNW,293,3.0,3.0,86,0.00,,,0.00,,2013-06-17 13:22:00,
2013-06-17 08:32:00,68.0,64.0,29.91,WNW,293,3.0,3.0,86,0.00,,,0.00,,2013-06-17 13:32:00,
2013-06-17 11:40:00,76.0,67.0,29.98,West,270,1.0,1.0,75,0.00,,,0.00,,2013-06-17 16:40:00,
2013-06-17 11:54:00,76.0,67.0,29.98,West,270,1.0,1.0,75,0.00,,,0.00,,2013-06-17 16:54:00,
2013-06-17 12:02:00,76.0,67.0,29.98,West,270,1.0,1.0,75,0.00,,,0.00,,2013-06-17 17:02:00,
2013-06-17 12:12:00,76.0,67.0,29.98,West,270,1.0,1.0,75,0.00,,,0.00,,2013-06-17 17:12:00,
2013-06-17 12:22:00,76.0,67.0,29.98,West,270,1.0,1.0,75,0.00,,,0.00,,2013-06-17 17:22:00,
2013-06-17 12:33:00,76.0,67.0,29.98,West,270,1.0,1.0,75,0.00,,,0.00,,2013-06-17 17:33:00,
2013-06-17 16:52:00,84.0,71.0,29.94,SSE,158,3.0,3.0,65,0.00,,,0.00,,2013-06-17 21:52:00,
2013-06-17 17:01:00,84.0,71.0,29.94,SSE,158,3.0,3.0,65,0.00,,,0.00,,2013-06-17 22:01:00,
2013-06-17 17:10:00,78.0,67.0,29.95,ENE,68,6.0,6.0,68,0.05,,,0.05,,2013-06-17 22:10:00,
2013-06-17 17:11:00,84.0,71.0,29.94,SSE,158,3.0,3.0,65,0.00,,,0.00,,2013-06-17 22:11:00,
2013-06-17 17:22:00,78.0,67.0,29.95,ENE,68,6.0,6.0,68,0.05,,,0.05,,2013-06-17 22:22:00,
2013-06-17 17:33:00,78.0,67.0,29.95,ENE,68,6.0,6.0,68,0.05,,,0.05,,2013-06-17 22:33:00,
2013-06-17 17:43:00,78.0,67.0,29.95,ENE,68,6.0,6.0,68,0.05,,,0.05,,2013-06-17 22:43:00,
2013-06-17 17:53:00,78.0,67.0,29.95,ENE,68,6.0,6.0,68,0.05,,,0.05,,2013-06-17 22:53:00,
2013-06-17 18:02:00,78.0,67.0,29.95,ENE,68,6.0,6.0,68,0.05,,,0.05,,2013-06-17 23:02:00,
2013-06-17 18:22:00,78.0,69.0,29.92,SSW,203,2.0,2.0,74,0.04,,,0.09,,2013-06-17 23:22:00,
2013-06-17 18:33:00,78.0,69.0,29.92,SSW,203,2.0,2.0,74,0.04,,,0.09,,2013-06-17 23:33:00,
2013-06-17 18:43:00,78.0,69.0,29.92,SSW,203,2.0,2.0,74,0.04,,,0.09,,2013-06-17 23:43:00,
2013-06-17 18:53:00,82.0,69.0,29.91,East,90,0.0,0.0,65,0.00,,,0.09,,2013-06-17 23:53:00,
2013-06-17 19:22:00,86.0,72.0,29.91,ESE,113,1.0,1.0,63,0.00,,,0.09,,2013-06-18 00:22:00,